FW0695 Weather Reports


time (UTC)temp
F
wind
direction
speed
knots
gust
knots
rain 1hr
in
rain 24hr
in
rain mn
in
humidity
%
barometer
mb
20260510184606 69 17 2.6 7.8 0.00 0.02 0.00 32 1023.4
20260510183057 69 20 2.6 7.8 0.00 0.02 0.00 33 1023.6
20260510181609 68 98 3.5 9.6 0.00 0.02 0.00 35 1023.6
20260510180108 67 89 2.6 7.8 0.00 0.02 0.00 36 1023.6
20260510174558 65 93 2.6 7.8 0.00 0.02 0.00 42 1023.8
20260510173103 64 23 1.7 5.2 0.00 0.02 0.00 44 1024.1
20260510171603 63 34 2.6 7.8 0.00 0.02 0.00 44 1024.1
20260510170057 61 73 2.6 7.8 0.00 0.02 0.00 46 1024.2
20260510164602 61 79 1.7 7.0 0.00 0.02 0.00 46 1024.4
20260510163059 60 84 2.6 8.7 0.00 0.02 0.00 46 1024.0
20260510161604 60 71 3.5 9.6 0.00 0.02 0.00 45 1023.9
20260510160059 59 74 2.6 6.1 0.00 0.02 0.00 50 1024.0
20260510154602 59 351 2.6 7.8 0.00 0.02 0.00 52 1023.8
20260510153102 58 44 2.6 7.0 0.00 0.02 0.00 56 1023.6
20260510151558 57 79 1.7 6.1 0.00 0.02 0.00 59 1023.2
20260510150126 56 66 2.6 7.8 0.00 0.02 0.00 62 1023.0
20260510144603 55 60 2.6 5.2 0.00 0.02 0.00 68 1023.4
20260510143106 54 347 0.9 2.6 0.00 0.02 0.00 71 1023.9
20260510141608 54 0 0.0 1.7 0.00 0.02 0.00 73 1023.9
20260510134610 54 0 0.0 1.7 0.00 0.02 0.00 75 1023.4
20260510133112 53 72 0.0 1.7 0.00 0.02 0.00 76 1022.4
20260510131610 54 61 0.9 3.5 0.00 0.02 0.00 76 1022.6
20260510130110 54 50 0.9 2.6 0.00 0.02 0.00 73 1022.4
20260510124608 54 0 0.0 1.7 0.00 0.02 0.00 72 1022.3
20260510123102 54 0 0.0 2.6 0.00 0.02 0.00 72 1022.0
20260510121558 54 0 0.0 2.6 0.00 0.02 0.00 75 1021.7
20260510120058 55 2 1.7 7.0 0.00 0.02 0.00 74 1020.4
20260510114601 54 32 1.7 7.0 0.00 0.02 0.00 77 1019.8
20260510113057 57 322 5.2 13.9 0.00 0.02 0.00 71 1019.5
20260510111606 58 283 3.5 8.7 0.00 0.02 0.00 63 1019.0
20260510110059 58 71 2.6 8.7 0.00 0.02 0.00 62 1018.8
20260510104607 59 27 3.5 11.3 0.00 0.02 0.00 62 1018.3
20260510103104 59 44 4.3 11.3 0.00 0.02 0.00 62 1018.4
20260510101600 58 23 3.5 8.7 0.00 0.02 0.00 64 1018.4
20260510100057 58 304 4.3 11.3 0.00 0.02 0.00 65 1018.2
20260510094613 59 13 3.5 13.9 0.00 0.02 0.00 65 1018.1
20260510093119 59 30 4.3 10.4 0.00 0.02 0.00 64 1018.0
20260510091557 59 31 3.5 8.7 0.00 0.02 0.00 64 1017.8
20260510090059 60 309 4.3 13.0 0.00 0.02 0.00 64 1017.7
20260510084557 60 36 3.5 8.7 0.00 0.02 0.00 63 1017.5
20260510083106 60 6 3.5 9.6 0.00 0.02 0.00 63 1017.3
20260510081558 60 75 2.6 7.0 0.00 0.02 0.00 63 1017.0
20260510080100 60 4 3.5 8.7 0.00 0.02 0.00 63 1016.9
20260510074602 60 75 3.5 7.0 0.00 0.02 0.00 64 1016.9
20260510073058 60 74 1.7 7.8 0.00 0.02 0.00 65 1016.6
20260510071559 60 16 2.6 7.8 0.00 0.02 0.00 65 1016.6
20260510070056 61 42 2.6 6.1 0.00 0.02 0.00 65 1016.5
20260510064604 61 40 1.7 5.2 0.00 0.02 0.00 65 1016.1
20260510063057 61 31 1.7 4.3 0.00 0.02 0.00 65 1016.0
20260510061600 62 35 1.7 5.2 0.00 0.02 0.00 63 1015.7
20260510060059 62 62 0.9 4.3 0.00 0.02 0.00 63 1015.4
20260510054557 63 25 0.9 3.5 0.00 0.02 0.00 62 1015.2
20260510053055 64 59 2.6 4.3 0.00 0.02 0.00 61 1014.9
20260510051606 64 44 0.9 3.5 0.00 0.02 0.00 61 1014.7
20260510050057 64 39 0.9 2.6 0.00 0.02 0.00 61 1014.6
20260510044617 65 100 1.7 5.2 0.00 0.02 0.02 61 1014.4
20260510043058 66 347 1.7 4.3 0.00 0.02 0.02 60 1014.3
20260510041558 66 86 0.9 5.2 0.00 0.02 0.02 59 1014.0
20260510040058 67 70 1.7 6.1 0.00 0.02 0.02 58 1013.9
20260510034557 67 80 1.7 6.1 0.00 0.02 0.02 56 1013.9
20260510033110 68 120 2.6 7.0 0.00 0.02 0.02 56 1013.7
20260510031557 68 119 1.7 7.8 0.00 0.02 0.02 56 1013.5
20260510030106 69 44 1.7 4.3 0.00 0.02 0.02 54 1013.2
20260510024600 69 15 0.9 5.2 0.00 0.02 0.02 53 1012.9
20260510023059 70 74 1.7 6.1 0.00 0.02 0.02 52 1012.1
20260510021613 70 43 0.9 4.3 0.00 0.02 0.02 50 1011.9
20260510020059 71 53 0.9 4.3 0.00 0.02 0.02 49 1011.1
20260510014600 72 127 1.7 7.0 0.00 0.02 0.02 48 1011.0
20260510013105 71 0 0.0 1.7 0.02 0.02 0.02 54 1011.0
20260510011559 70 0 0.0 1.7 0.02 0.02 0.02 59 1012.5
20260510010104 68 41 0.0 2.6 0.02 0.02 0.02 60 1012.7
20260510004557 71 359 2.6 7.0 0.02 0.02 0.02 53 1012.1
20260510003101 75 163 2.6 10.4 0.00 0.00 0.00 45 1012.2
20260510001600 80 151 0.0 0.9 0.00 0.00 0.00 28 1010.1
20260510000058 82 0 0.0 1.7 0.00 0.00 0.00 25 1009.0
20260509234600 83 0 0.9 3.5 0.00 0.00 0.00 24 1008.4
20260509233100 83 125 0.9 2.6 0.00 0.00 0.00 24 1008.5
20260509231604 84 0 0.0 1.7 0.00 0.00 0.00 22 1008.7
20260509230100 86 115 0.0 2.6 0.00 0.00 0.00 22 1008.6
20260509224601 88 145 1.7 5.2 0.00 0.00 0.00 21 1008.5
20260509223058 88 195 0.0 0.9 0.00 0.00 0.00 21 1008.9
20260509221557 88 225 0.9 7.0 0.00 0.00 0.00 23 1009.1
20260509220107 88 280 0.9 5.2 0.00 0.00 0.00 22 1009.0
20260509214603 89 206 0.9 5.2 0.00 0.00 0.00 24 1008.9
20260509213134 89 111 0.9 5.2 0.00 0.00 0.00 24 1009.0
20260509211600 90 207 0.9 4.3 0.00 0.00 0.00 21 1009.2
20260509210107 89 123 1.7 6.1 0.00 0.00 0.00 23 1009.3
20260509204558 88 194 0.9 7.0 0.00 0.00 0.00 23 1009.5
20260509203101 88 208 0.0 6.1 0.00 0.00 0.00 22 1009.6
20260509201559 88 0 0.9 4.3 0.00 0.00 0.00 23 1009.7
20260509200105 88 280 0.9 4.3 0.00 0.00 0.00 24 1009.9
20260509194600 89 270 0.9 4.3 0.00 0.00 0.00 24 1010.0
20260509193058 88 143 0.9 4.3 0.00 0.00 0.00 23 1010.1
20260509191558 88 112 1.7 4.3 0.00 0.00 0.00 25 1010.2